Total_Precipitation_Accumulation
3.26 3.38 3.38 3.37 3.12 3.08 3.05 2.93 2.72 2.79 2.71 2.45 2.15 2.11 2.17 2.14 2.25 2.49 2.59 2.77 2.81 3.18 3.72 4.03 4.03 4.03 4.23 4.34 4.09 3.88 3.69 3.53 3.39 3.03 2.71 2.52 2.38 2.32 2.13 2.03 1.97 1.89 1.94
3.53 3.62 3.60 3.58 3.48 3.34 3.36 3.18 2.99 3.17 3.05 2.91 2.66 2.51 2.39 2.47 2.46 2.53 2.74 2.93 2.87 2.89 3.27 3.69 3.94 4.15 4.46 4.55 4.36 3.91 3.66 3.67 3.76 3.54 3.19 2.86 2.58 2.48 2.34 2.22 2.09 1.98 1.95
3.52 3.71 3.88 3.81 3.80 3.68 3.64 3.56 3.52 3.61 3.30 3.10 2.90 2.75 2.69 2.78 2.73 2.65 2.80 2.98 2.92 3.00 3.06 3.15 3.34 3.61 4.03 4.37 4.48 4.30 3.91 3.70 3.76 3.78 3.61 3.28 2.94 2.74 2.59 2.43 2.34 2.27 2.20
3.52 3.88 4.00 4.04 4.13 4.03 4.09 4.14 4.04 3.89 3.76 3.49 3.25 2.90 2.76 2.93 2.90 2.88 2.91 2.94 3.12 3.05 3.08 2.97 3.01 3.11 3.49 4.02 4.24 4.46 4.45 4.29 4.02 3.83 3.74 3.54 3.31 3.06 2.82 2.57 2.46 2.46 2.42
4.04 4.20 4.29 4.39 4.48 4.54 4.57 4.36 4.51 4.27 4.17 3.96 3.47 3.20 2.92 2.83 2.84 2.77 2.88 2.79 2.90 3.00 3.13 3.07 3.02 3.04 3.28 3.84 4.11 4.42 4.63 4.65 4.54 4.18 3.92 3.72 3.63 3.45 3.19 2.95 2.76 2.61 2.54
4.77 4.90 4.78 4.86 4.94 5.02 4.90 4.88 4.96 4.72 4.37 4.28 3.78 3.50 3.23 2.95 2.93 2.90 2.87 2.98 2.84 2.65 2.87 3.05 3.21 3.03 3.25 3.50 3.78 4.11 4.40 4.65 4.68 4.46 4.33 4.21 3.98 3.72 3.33 3.00 2.77 2.64 2.58
5.74 5.80 5.51 5.52 5.45 5.33 5.12 5.12 5.01 4.74 4.42 4.39 4.28 3.81 3.20 2.81 2.75 2.65 2.63 2.84 2.80 2.68 2.78 2.95 3.04 2.93 2.80 2.98 3.14 3.45 3.92 4.42 4.79 4.73 4.55 4.35 4.04 3.80 3.52 3.20 2.95 2.80 2.66
6.58 6.63 6.60 6.34 6.13 5.86 5.39 5.04 4.89 4.63 4.24 4.38 4.44 4.40 3.68 3.18 2.63 2.17 2.27 2.31 2.37 2.63 2.61 2.59 2.77 2.90 2.76 2.78 2.60 2.81 3.14 3.65 4.26 4.61 4.62 4.35 4.11 3.94 3.74 3.52 3.32 3.14 2.91
6.62 6.81 6.81 6.59 6.22 5.65 5.08 4.95 4.93 4.76 4.48 4.41 4.36 4.59 4.00 3.42 2.94 2.42 2.10 2.01 2.14 2.29 2.34 2.38 2.43 2.54 2.52 2.62 2.57 2.58 2.75 2.99 3.58 4.11 4.27 4.00 3.79 3.68 3.67 3.58 3.51 3.37 3.22
6.40 6.34 6.22 5.84 5.45 5.06 4.74 4.59 4.67 4.56 4.55 4.36 4.31 4.01 3.71 3.38 3.14 2.75 2.26 2.02 2.09 2.15 2.15 2.10 2.14 2.37 2.47 2.52 2.56 2.46 2.40 2.53 2.96 3.45 3.76 3.72 3.56 3.47 3.52 3.50 3.47 3.50 3.53
5.62 5.21 4.90 4.73 4.67 4.49 4.28 4.12 4.14 4.04 3.85 3.77 3.78 3.74 3.67 3.37 3.04 2.85 2.55 2.31 2.27 2.07 2.05 2.12 2.19 2.33 2.50 2.55 2.59 2.51 2.41 2.25 2.40 2.71 3.02 3.18 3.32 3.36 3.44 3.61 3.69 3.69 3.71
4.79 4.26 4.02 3.92 3.82 3.64 3.43 3.32 3.32 3.31 3.39 3.45 3.53 3.53 3.47 3.37 3.15 3.14 2.93 2.64 2.50 2.33 2.23 2.21 2.22 2.35 2.57 2.70 2.63 2.84 2.47 2.21 2.19 2.34 2.52 2.66 2.86 2.98 3.10 3.28 3.53 3.67 3.79
4.31 3.84 3.44 3.28 3.02 2.84 2.74 2.79 2.78 2.75 2.89 3.00 3.10 3.21 3.22 3.11 3.00 3.07 3.19 2.93 2.65 2.46 2.38 2.28 2.24 2.35 2.39 2.64 2.90 3.03 2.57 2.34 2.17 2.11 2.20 2.32 2.46 2.58 2.63 2.67 2.93 3.19 3.43
3.69 3.42 3.03 2.71 2.48 2.34 2.25 2.40 2.42 2.40 2.50 2.62 2.70 2.94 2.93 2.82 2.89 2.96 3.10 3.25 3.14 2.75 2.46 2.31 2.28 2.31 2.34 2.42 2.71 2.82 2.43 2.37 2.11 2.00 2.00 2.11 2.23 2.35 2.41 2.42 2.60 2.80 2.92
2.83 2.71 2.53 2.37 2.24 2.18 2.17 2.23 2.20 2.23 2.40 2.47 2.49 2.64 2.77 2.74 2.78 2.79 2.89 3.03 3.15 2.94 2.62 2.41 2.34 2.28 2.32 2.39 2.61 2.22 2.15 2.33 2.15 2.01 1.92 1.88 1.89 2.02 2.13 2.13 2.12 2.18 2.26
2.16 2.17 2.14 2.16 2.11 2.05 2.09 2.15 2.03 2.05 2.18 2.20 2.19 2.31 2.40 2.44 2.56 2.61 2.69 2.80 2.89 2.84 2.64 2.35 2.29 2.28 2.25 2.08 2.28 1.99 2.04 2.22 2.04 1.93 1.84 1.82 1.78 1.80 1.87 1.92 1.92 1.89 1.89
1.82 1.83 1.87 1.91 1.92 1.92 1.95 1.94 1.80 1.83 1.90 2.05 2.16 2.22 2.27 2.30 2.39 2.38 2.40 2.42 2.54 2.71 2.81 2.62 2.43 2.37 2.36 2.25 2.10 1.90 1.78 1.79 1.73 1.83 1.80 1.78 1.71 1.68 1.73 1.73 1.68 1.65 1.62
1.70 1.71 1.72 1.71 1.76 1.86 1.94 1.87 1.72 1.68 1.81 1.94 2.08 2.23 2.20 2.12 2.16 2.21 2.27 2.25 2.25 2.42 2.58 2.54 2.40 2.26 2.26 2.23 2.15 2.05 1.72 1.56 1.54 1.59 1.54 1.49 1.51 1.53 1.49 1.52 1.51 1.48 1.44
1.69 1.66 1.61 1.61 1.67 1.72 1.75 1.71 1.64 1.61 1.67 1.75 1.86 1.91 1.94 1.96 1.91 1.90 1.95 2.01 1.99 2.02 2.25 2.28 2.20 2.13 2.08 2.04 2.10 2.05 1.85 1.85 1.49 1.42 1.35 1.28 1.26 1.27 1.26 1.25 1.28 1.34 1.34
1.62 1.65 1.62 1.58 1.57 1.50 1.40 1.36 1.36 1.41 1.46 1.46 1.52 1.54 1.62 1.75 1.78 1.78 1.73 1.81 1.88 2.02 2.12 2.16 2.07 2.01 2.01 1.91 1.98 1.99 1.94 1.80 1.59 1.33 1.34 1.20 1.13 1.07 1.07 1.08 1.08 1.10 1.14
1.42 1.48 1.53 1.46 1.33 1.19 1.03 1.05 1.13 1.16 1.25 1.28 1.30 1.24 1.24 1.47 1.62 1.57 1.42 1.59 1.80 1.97 2.04 2.06 1.96 1.85 1.79 1.89 1.86 1.79 1.80 1.79 1.68 1.51 1.52 1.32 1.22 1.14 1.14 1.14 1.09 1.06 1.08
1.55 1.48 1.45 1.37 1.24 1.00 0.99 0.96 1.07 1.22 1.32 1.28 1.30 1.28 1.19 1.25 1.35 1.31 1.23 1.35 1.60 1.70 1.81 1.96 1.95 1.85 1.77 1.80 1.85 1.84 1.87 1.94 1.90 1.64 1.68 1.54 1.41 1.40 1.28 1.19 1.15 1.08 1.06
1.66 1.59 1.46 1.41 1.36 1.26 1.13 0.96 0.98 1.13 1.25 1.25 1.26 1.28 1.12 1.06 1.24 1.25 1.27 1.26 1.32 1.34 1.47 1.79 1.97 1.83 1.80 1.87 2.01 1.95 2.05 2.06 1.92 1.79 1.94 1.85 1.57 1.44 1.17 1.08 1.16 1.05 1.04
1.64 1.60 1.52 1.41 1.32 1.11 0.97 0.85 0.88 1.00 1.20 1.24 1.22 1.27 1.31 1.23 1.15 1.22 1.23 1.25 1.30 1.33 1.30 1.36 1.60 1.68 1.71 1.87 2.03 2.09 2.20 2.12 1.99 1.91 2.02 2.05 1.69 1.56 1.28 1.26 1.20 1.04 1.01
1.57 1.51 1.43 1.37 1.29 1.12 0.93 0.80 0.85 1.00 1.19 1.21 1.18 1.16 1.24 1.25 1.23 1.21 1.25 1.36 1.42 1.42 1.22 1.22 1.29 1.40 1.48 1.63 1.78 1.92 2.18 2.34 2.16 1.89 1.88 2.03 1.78 1.67 1.52 1.42 1.25 1.14 1.03
1.49 1.40 1.31 1.30 1.28 1.24 1.10 0.92 0.91 0.98 1.14 1.17 1.23 1.22 1.16 1.19 1.23 1.20 1.29 1.45 1.47 1.44 1.33 1.28 1.41 1.51 1.49 1.59 1.68 1.84 2.13 2.23 2.09 1.99 1.77 1.88 1.81 1.86 1.86 1.52 1.35 1.28 1.19